[[{"header":{"parameterUnit":"m.s-1","parameterCategory":1,"la1":30.2991,"la2":30.254,"lo1":-89.0895,"lo2":-89.0444,"dy":0.0017,"dx":0.0017,"nx":28,"ny":28,"refTime":"2023-07-24T21:00:00:Z","depth":0,"parameterNumber":2,"parameterNumberName":"U-component_of_WINDS"},"data":[0,0,0,0,0,0,0,0,0,0,0,0,0,0,0,0,0,0,0,0,0,0,0,0,0,0,0,0,0,0,0,0,0,0,0,0,0,0,0,0,0,0,0,0,0,0,0,0,0,0,0,0,0,0,0,0,0,0,0.2649,0.265,0,0.2774,0.2775,0.2777,0.2731,0.2728,0.2725,0.2722,0.2857,0.2863,0.2869,0,0,0,0,0,0,0,0,0,0,0,0,0,0.2375,0.238,0.2649,0.265,0.2652,0.2774,0.2775,0.2777,0.2731,0.2728,0.2724,0.2721,0.2855,0.2862,0.2869,0,0,0,0,0,0,0,0,0,0,0,0,0,0.2497,0.2382,0.2649,0.2643,0.2644,0.2773,0.2775,0.2778,0.2732,0.2728,0.2723,0.2719,0.2852,0.2861,0.287,0.3014,0,0,0.2899,0.2903,0,0,0,0,0,0,0,0,0.249,0.2507,0.2643,0.2644,0.2645,0.2732,0.2728,0.2857,0.2733,0.2699,0.2722,0.2717,0.2819,0.2831,0.2864,0.302,0.3026,0.29,0.2906,0.291,0.2912,0,0,0,0,0,0,0,0.2481,0.2501,0.2698,0.2645,0.2646,0.2637,0.2649,0.2752,0.2782,0.2702,0.2698,0.2714,0.2819,0.2855,0.2867,0.3028,0.29,0.2908,0.2914,0.2917,0.3306,0.3311,0,0,0,0,0,0,0.2472,0.2494,0.2694,0.2702,0.2555,0.2645,0.2659,0.2709,0.278,0.2787,0.2717,0.2711,0.2841,0.2856,0.2871,0.3043,0.2909,0.2918,0.2924,0.3301,0.3307,0.3312,0,0,0,0,0,0,0.2466,0.249,0.2689,0.2597,0.2622,0.2654,0.271,0.2713,0.2749,0.2792,0.2798,0.2748,0.2838,0.2858,0.2978,0.3047,0.2922,0.2931,0.3296,0.3303,0.331,0.3387,0,0,0,0,0,0,0.2458,0.2488,0.2542,0.2599,0.2627,0.2793,0.2715,0.2719,0.2765,0.2758,0.2823,0.2829,0.2837,0.2964,0.2987,0.3057,0.2938,0.329,0.3299,0.3307,0.3379,0.3396,0.3411,0,0,0,0,0,0.2449,0.2561,0.2545,0.2569,0.2695,0.2797,0.2813,0.2817,0.277,0.2825,0.2853,0.2827,0.3035,0.2977,0.3002,0.3076,0.3286,0.3297,0.3307,0.3371,0.3393,0.3411,0,0,0,0,0,0,0.2514,0.2568,0.2551,0.2685,0.2736,0.2789,0.2858,0.284,0.2908,0.2899,0.2903,0.2918,0.3041,0.3071,0.3004,0.3218,0.3154,0.317,0.3194,0.3215,0.323,0.3221,0.2946,0,0,0,0,0,0.2543,0.262,0.2664,0.2777,0.2803,0.2826,0.2871,0.287,0.2924,0.2946,0.2982,0.3038,0.3115,0.3167,0.3241,0.3382,0.3396,0.3446,0.3462,0.3475,0.3489,0.3565,0.3588,0.3347,0.3347,0.3347,0,0,0.2606,0.2645,0.2693,0.2791,0.2831,0.2911,0.2845,0.2934,0.2994,0.2961,0.3075,0.3103,0.3165,0.3296,0.3356,0.3325,0.3558,0.3489,0.3499,0.3506,0.3579,0.3602,0.3622,0.3354,0.3353,0.3352,0,0,0.276,0.2797,0.2895,0.2936,0.2995,0.301,0.3033,0.3088,0.3105,0.3219,0.3195,0.3268,0.3402,0.3446,0.3486,0.3656,0.3635,0.368,0.3764,0.3839,0.3858,0.3874,0.3934,0.3956,0.3694,0.3694,0.3694,0,0.2831,0.2949,0.2949,0.3038,0.3082,0.3052,0.3152,0.3192,0.3274,0.3305,0.3269,0.3435,0.3475,0.3615,0.3656,0.369,0.3717,0.3673,0.3854,0.3871,0.3887,0.3944,0.3967,0.3699,0.3698,0.3698,0.3697,0,0.3033,0.3115,0.3187,0.3264,0.3316,0.3411,0.3425,0.3478,0.3471,0.349,0.3606,0.3652,0.3734,0.3768,0.3764,0.3908,0.3886,0.3852,0.3788,0.3915,0.3969,0.3991,0.3706,0.3704,0.3703,0.3702,0,0,0.3233,0.3306,0.3333,0.3367,0.343,0.3494,0.3587,0.3665,0.371,0.3767,0.3846,0.3958,0.3927,0.3972,0.3973,0.4038,0.4168,0.3996,0.3997,0.4026,0.4328,0.4353,0.4379,0.4154,0.4158,0.4161,0.4323,0,0.3393,0.3553,0.3554,0.3703,0.3779,0.3751,0.3832,0.388,0.3899,0.3968,0.399,0.4069,0.4022,0.4049,0.4112,0.4139,0.4229,0.4127,0.4228,0.4231,0.4213,0.4407,0.4434,0.4584,0.4344,0.4348,0.435,0,0.36,0.3661,0.3816,0.3866,0.3898,0.3971,0.4041,0.4107,0.416,0.417,0.422,0.421,0.4305,0.4237,0.4369,0.4299,0.434,0.436,0.4366,0.4375,0.4298,0.4422,0.4632,0.4655,0.4383,0.4381,0.4378,0,0.373,0.3851,0.3959,0.3989,0.405,0.4102,0.413,0.4179,0.4226,0.4288,0.4318,0.4391,0.4432,0.4489,0.4499,0.4449,0.4631,0.4564,0.4642,0.4642,0.4683,0.468,0.4903,0.471,0.4709,0.4709,0.4708,0,0.3907,0.4004,0.4018,0.4084,0.4191,0.4192,0.4298,0.4322,0.4366,0.4438,0.4419,0.4487,0.4496,0.4567,0.4576,0.4683,0.4702,0.4713,0.4714,0.4714,0.4713,0.4741,0.4731,0.4715,0.4713,0.4712,0.4711,0,0.4071,0.4084,0.42,0.4247,0.4262,0.4338,0.438,0.4444,0.446,0.4551,0.4572,0.4599,0.468,0.4696,0.4794,0.4799,0.4927,0.4918,0.4908,0.4907,0.4984,0.4976,0.5233,0.5266,0.5052,0.5054,0.5055,0,0.4183,0.4256,0.431,0.4355,0.4386,0.446,0.4505,0.4509,0.4558,0.4623,0.468,0.4759,0.4822,0.4955,0.4984,0.5058,0.505,0.5135,0.5062,0.5059,0.5051,0.5046,0.5053,0.5149,0.5152,0.5153,0.5155,0,0.4381,0.4383,0.4449,0.4517,0.4572,0.4626,0.4678,0.4717,0.4727,0.4783,0.4865,0.4914,0.5012,0.5091,0.5164,0.5195,0.5177,0.5177,0.5199,0.5201,0.5191,0.5196,0.4946,0.5172,0.517,0.5169,0.5168,0.5167,0.4522,0.4584,0.4632,0.4706,0.4744,0.4792,0.4854,0.4877,0.4944,0.5023,0.5021,0.5111,0.5162,0.5258,0.5293,0.5364,0.5338,0.537,0.5378,0.5385,0.5392,0.518,0.5378,0.5377,0.5377,0.5377,0.5376,0,0.4718,0.4746,0.4814,0.4885,0.4943,0.4919,0.4974,0.5025,0.5103,0.5151,0.5213,0.5307,0.5383,0.5417,0.5492,0.5542,0.5535,0.5561,0.5558,0.5565,0.5412,0.5385,0.5565,0.5565,0.5565,0.5565,0.5565,0.5565,0.4827,0.4931,0.4939,0.5062,0.509,0.5176,0.5209,0.5254,0.5292,0.5396,0.5458,0.5479,0.5522,0.5599,0.5668,0.5676,0.5704,0.5734,0.5738,0.5595,0.5576,0.5558,0.5532,0.574,0.574,0.5885,0.5886,0.5887]},{"header":{"parameterUnit":"m.s-1","parameterCategory":1,"la1":30.2991,"la2":30.254,"lo1":-89.0895,"lo2":-89.0444,"dy":0.0017,"dx":0.0017,"nx":28,"ny":28,"refTime":"2023-07-24T21:00:00:Z","depth":0,"parameterNumber":3,"parameterNumberName":"V-component_of_WINDS"},"data":[0,0,0,0,0,0,0,0,0,0,0,0,0,0,0,0,0,0,0,0,0,0,0,0,0,0,0,0,0,0,0,0,0,0,0,0,0,0,0,0,0,0,0,0,0,0,0,0,0,0,0,0,0,0,0,0,0,0,2.5306,2.5305,0,2.5248,2.5247,2.5247,2.5243,2.5244,2.5245,2.5245,2.518,2.5178,2.5176,0,0,0,0,0,0,0,0,0,0,0,0,0,2.5407,2.5405,2.5306,2.5305,2.5305,2.5248,2.5247,2.5247,2.5243,2.5244,2.5245,2.5245,2.5181,2.5178,2.5176,0,0,0,0,0,0,0,0,0,0,0,0,0,2.5357,2.5404,2.5306,2.5296,2.5295,2.5248,2.5247,2.5246,2.5243,2.5244,2.5245,2.5246,2.5182,2.5179,2.5175,2.5133,0,0,2.5164,2.5163,0,0,0,0,0,0,0,0,2.536,2.5354,2.5298,2.5297,2.5295,2.5254,2.5259,2.5208,2.5243,2.5262,2.5245,2.5246,2.5204,2.5198,2.5185,2.513,2.5127,2.5164,2.5162,2.516,2.5159,0,0,0,0,0,0,0,2.5364,2.5356,2.5283,2.5298,2.5295,2.5292,2.5286,2.525,2.5228,2.5261,2.526,2.5254,2.5203,2.5189,2.5184,2.5126,2.5164,2.5161,2.5159,2.5157,2.503,2.5029,0,0,0,0,0,0,2.537,2.5359,2.5285,2.5281,2.5331,2.529,2.5283,2.5266,2.5228,2.5224,2.5253,2.5254,2.5194,2.5188,2.5181,2.5127,2.516,2.5157,2.5155,2.5031,2.503,2.5028,0,0,0,0,0,0,2.5372,2.5363,2.5287,2.532,2.531,2.5287,2.5268,2.5264,2.525,2.5223,2.5218,2.5243,2.5195,2.5186,2.5145,2.5125,2.5156,2.5152,2.5033,2.5031,2.5029,2.502,0,0,0,0,0,0,2.5375,2.5364,2.535,2.532,2.5308,2.5254,2.5267,2.5263,2.5245,2.5245,2.5212,2.5207,2.5195,2.515,2.5141,2.512,2.515,2.5034,2.5032,2.503,2.5022,2.5018,2.5014,0,0,0,0,0,2.5379,2.5349,2.5349,2.534,2.529,2.5253,2.5246,2.5234,2.5243,2.5227,2.5209,2.5208,2.5129,2.5146,2.5136,2.5114,2.5036,2.5033,2.503,2.5023,2.5019,2.5015,0,0,0,0,0,0,2.5376,2.5345,2.5345,2.5305,2.5281,2.5252,2.5232,2.523,2.5202,2.5203,2.5188,2.518,2.5138,2.5122,2.5142,2.5069,2.5083,2.5078,2.5081,2.5077,2.5073,2.5077,2.5147,0,0,0,0,0,2.5371,2.5345,2.5318,2.5286,2.5274,2.5255,2.5238,2.5231,2.5205,2.5195,2.5174,2.5147,2.5116,2.5096,2.5066,2.502,2.501,2.5,2.4996,2.4993,2.4988,2.4959,2.4953,2.5019,2.5019,2.5019,0,0,2.5359,2.5339,2.5324,2.5285,2.5266,2.5236,2.5247,2.5216,2.5193,2.519,2.5149,2.5132,2.5101,2.5057,2.5036,2.5042,2.4968,2.4989,2.4987,2.4984,2.4955,2.4949,2.4943,2.5017,2.5018,2.5018,0,0,2.5324,2.5307,2.5277,2.5258,2.5229,2.5216,2.5209,2.518,2.5169,2.5128,2.5124,2.5096,2.5043,2.502,2.5002,2.4956,2.4952,2.4946,2.4926,2.4898,2.4893,2.4888,2.4868,2.4862,2.4942,2.4942,2.4942,0,2.5313,2.5271,2.5261,2.523,2.5211,2.5208,2.5175,2.5157,2.5119,2.5105,2.5113,2.5045,2.5025,2.4973,2.4961,2.4948,2.4936,2.4949,2.4895,2.489,2.4885,2.4866,2.4859,2.4941,2.4941,2.4941,2.4941,0,2.5257,2.5228,2.5206,2.5171,2.515,2.5118,2.5101,2.5081,2.5075,2.5061,2.5017,2.4992,2.4956,2.4943,2.4937,2.4889,2.4894,2.4899,2.4911,2.4878,2.486,2.4852,2.494,2.494,2.494,2.4941,0,0,2.5217,2.5177,2.5168,2.5151,2.5119,2.5095,2.5062,2.5027,2.5008,2.4983,2.4952,2.4907,2.491,2.4889,2.4881,2.4856,2.4817,2.4863,2.4862,2.4853,2.4758,2.4753,2.4745,2.4816,2.4814,2.4813,2.476,0,2.5175,2.5118,2.5108,2.5057,2.5027,2.5023,2.4994,2.4969,2.4954,2.4925,2.4908,2.4875,2.4884,2.4871,2.4847,2.4827,2.4797,2.4831,2.4783,2.4782,2.4789,2.4736,2.473,2.4681,2.4753,2.4752,2.4751,0,2.5119,2.5092,2.5039,2.5008,2.4995,2.4969,2.4935,2.4909,2.488,2.487,2.4846,2.484,2.4802,2.4818,2.4764,2.4787,2.4767,2.4754,2.4751,2.4744,2.4762,2.4724,2.4666,2.4657,2.474,2.4741,2.4742,0,2.5092,2.5042,2.5003,2.4989,2.4953,2.4934,2.4918,2.489,2.4869,2.4839,2.4824,2.479,2.477,2.4742,2.4725,2.4739,2.467,2.4686,2.4658,2.4658,2.4642,2.4643,2.4577,2.4634,2.4634,2.4634,2.4634,0,2.5045,2.5011,2.499,2.4965,2.4926,2.4914,2.4875,2.4858,2.4833,2.4803,2.4798,2.4769,2.475,2.4717,2.4704,2.4658,2.465,2.4639,2.4635,2.4638,2.4639,2.4622,2.4624,2.4632,2.4633,2.4633,2.4634,0,2.5007,2.4992,2.4948,2.4917,2.4909,2.4881,2.4853,2.4828,2.4813,2.4775,2.4765,2.4741,2.4702,2.4683,2.4635,2.4626,2.4573,2.4573,2.4583,2.4581,2.4553,2.4555,2.4472,2.4459,2.4528,2.4527,2.4527,0,2.4976,2.495,2.4917,2.4897,2.4881,2.4849,2.4828,2.4814,2.4791,2.4755,2.4733,2.4694,2.4663,2.4601,2.4577,2.4539,2.4536,2.451,2.453,2.4533,2.4531,2.4532,2.4527,2.4505,2.4504,2.4504,2.4504,0,2.4923,2.4916,2.4887,2.4854,2.4829,2.4802,2.4775,2.4759,2.4739,2.4714,2.4675,2.4651,2.4602,2.4562,2.4522,2.4503,2.4498,2.4498,2.4488,2.4489,2.4495,2.4488,2.457,2.4499,2.4499,2.45,2.45,2.45,2.4886,2.4861,2.4833,2.48,2.4778,2.4753,2.4727,2.4708,2.4677,2.4636,2.4629,2.4587,2.4555,2.4502,2.4481,2.4446,2.4451,2.4439,2.4435,2.4431,2.4428,2.4503,2.4439,2.4439,2.4439,2.4439,2.4439,0,2.4829,2.4811,2.478,2.4743,2.4716,2.4717,2.4687,2.4663,2.4626,2.4598,2.4567,2.4521,2.4482,2.4455,2.4415,2.4391,2.4388,2.4381,2.4381,2.4375,2.4427,2.4438,2.4384,2.4384,2.4384,2.4384,2.4384,2.4384,2.4796,2.4754,2.4744,2.4689,2.4671,2.4631,2.4613,2.4588,2.4565,2.4514,2.4482,2.4466,2.4437,2.4394,2.4357,2.435,2.4334,2.4326,2.4318,2.4367,2.4372,2.4378,2.4387,2.4324,2.4324,2.4269,2.4268,2.4268]}]]